Marshalltown, IA

9:21 PM CST on February 21, 2018 (GMT -0600)
Marshalltown Municipal

Weather History for KMIW - November, 2011

Change the Weather History Date:

Wednesday, November 9, 2011

  Actual Average Record
Temperature  
Mean Temperature 40 °F 40 °F  
Max Temperature 47 °F 50 °F 73 °F (1999)
Min Temperature 33 °F 30 °F 16 °F (2003)
Degree Days  
Heating Degree Days 25 25  
Month to date heating degree days 197 209  
Since 1 July heating degree days 766 842  
Cooling Degree Days 0 0  
Month to date cooling degree days 0 0  
Year to date cooling degree days 896 728  
Moisture  
Dew Point 31 °F    
Average Humidity 78    
Maximum Humidity 96    
Minimum Humidity 60    
Precipitation  
Precipitation 0.51 in 0.09 in 0.51 in (2011)
Month to date precipitation 1.79 0.96  
Year to date precipitation 24.62  
Sea Level Pressure  
Sea Level Pressure 30.01 in    
Wind  
Wind Speed 15 mph (NW)    
Max Wind Speed 33 mph    
Max Gust Speed 41 mph    
Visibility 7 miles    
Events Rain , Snow    
T = Trace of Precipitation, MM = Missing Value Source: NWS Daily Summary

Daily Weather History Graph

Daily Weather History Graph

Search for Another Location

Airport or City:

Trip Planner

Search our weather history database for the weather conditions in past years. The results will help you decide how hot, cold, wet, or windy it might be!

Date:

Astronomy

Nov. 09, 2011 Rise Set
Actual Time 6:54 AM CST 4:56 PM CST
Civil Twilight 6:24 AM CST 5:25 PM CST
Nautical Twilight 5:51 AM CST 5:59 PM CST
Astronomical Twilight 5:18 AM CST 6:32 PM CST
Moon 4:08 PM CST (11/9) 5:50 AM CST (11/9)
Length of Visible Light 11h 01m
Length of Day
10h 02m
Waxing Gibbous, 99% of the Moon is Illuminated
Nov 9
Waxing Gibbous
Nov 10
Full
Nov 18
Last Quarter
Nov 25
New
Dec 2
First Quarter

Hourly Weather History & Observations

Time (CST) Temp. Windchill Dew Point Humidity Pressure Visibility Wind Dir Wind Speed Gust Speed Precip Events Conditions
12:53 AM 36.0 °F 25.0 °F 34.0 °F 93% 29.98 in 6.0 mi North 20.7 mph 27.6 mph 0.12 in Rain Light Rain
1:26 AM 37.4 °F 25.6 °F 33.8 °F 87% 29.93 in 3.0 mi North 26.5 mph 35.7 mph 0.04 in Snow Light Snow
1:34 AM 37.4 °F 25.9 °F 33.8 °F 87% 29.92 in 3.0 mi North 25.3 mph 33.4 mph 0.05 in Snow Light Snow
1:53 AM 37.0 °F 26.2 °F 34.0 °F 89% 29.96 in 4.0 mi North 21.9 mph 29.9 mph 0.09 in Rain Rain
2:06 AM 37.4 °F 26.1 °F 33.8 °F 87% 29.94 in 5.0 mi North 24.2 mph 32.2 mph 0.03 in Rain Rain
2:25 AM 37.4 °F 25.2 °F 33.8 °F 87% 29.93 in 6.0 mi North 28.8 mph 34.5 mph 0.04 in Snow Light Snow
2:50 AM 35.6 °F 24.5 °F 33.8 °F 93% 29.96 in 6.0 mi North 20.7 mph - 0.05 in Snow Light Snow
2:51 AM 36.0 °F 25.0 °F 34.0 °F 93% 29.99 in 6.0 mi North 20.7 mph - 0.06 in Snow Light Snow
3:22 AM 33.8 °F 22.2 °F 32.0 °F 93% 29.96 in 1.8 mi North 20.7 mph - 0.03 in Snow Light Snow
3:53 AM 33.1 °F 21.2 °F 32.0 °F 96% 29.97 in 0.8 mi NNW 20.7 mph - 0.06 in Snow Light Snow
4:08 AM 33.8 °F 21.6 °F 32.0 °F 93% 29.93 in 1.0 mi NNW 23.0 mph - 0.02 in   Mist
4:45 AM 33.8 °F 21.3 °F 32.0 °F 93% 29.95 in 2.5 mi North 24.2 mph 32.2 mph 0.12 in Snow Light Snow
4:53 AM 33.1 °F 20.6 °F 32.0 °F 96% 29.99 in 2.0 mi North 23.0 mph - 0.14 in Snow Light Snow
5:07 AM 33.8 °F 21.9 °F 32.0 °F 93% 29.96 in 1.5 mi North 21.9 mph - 0.01 in Snow Light Snow
6:00 AM 33.8 °F 21.3 °F 32.0 °F 93% 29.94 in 1.5 mi NNW 24.2 mph 31.1 mph 0.00 in Snow Light Snow
6:11 AM 33.8 °F 21.0 °F 33.8 °F 100% 29.94 in 2.5 mi NNW 25.3 mph - 0.00 in Snow Light Snow
6:15 AM 33.8 °F 20.8 °F 32.0 °F 93% 29.94 in 4.0 mi NNW 26.5 mph 33.4 mph 0.01 in Snow Light Snow
6:44 AM 33.8 °F 21.0 °F 33.8 °F 100% 29.94 in 9.0 mi North 25.3 mph 38.0 mph 0.01 in   Overcast
6:53 AM 34.0 °F 21.5 °F - N/A% 29.97 in 10.0 mi North 24.2 mph 34.5 mph 0.01 in   Overcast
8:53 AM 34.0 °F 28.0 °F 32.0 °F 92% 30.02 in 10.0 mi WNW 6.9 mph - N/A   Overcast
9:53 AM 36.0 °F 27.5 °F 30.0 °F 79% 30.04 in 10.0 mi NW 12.7 mph - N/A   Partly Cloudy
10:53 AM 37.9 °F 30.5 °F 30.0 °F 73% 30.05 in 10.0 mi WNW 11.5 mph - N/A   Clear
11:53 AM 39.9 °F 31.8 °F 33.1 °F 77% 30.05 in 10.0 mi WNW 15.0 mph - N/A   Clear
12:53 PM 45.0 °F 38.2 °F 36.0 °F 71% 30.04 in 10.0 mi WNW 15.0 mph - N/A   Clear
1:53 PM 46.9 °F - 35.1 °F 63% 30.04 in 10.0 mi WNW 15.0 mph - N/A   Clear
2:53 PM 46.9 °F - 34.0 °F 61% 30.05 in 10.0 mi WNW 18.4 mph - N/A   Clear
3:53 PM 46.0 °F 39.9 °F 33.1 °F 61% 30.06 in 10.0 mi WNW 13.8 mph - N/A   Clear
4:53 PM 41.0 °F 34.7 °F 30.9 °F 67% 30.07 in 10.0 mi WNW 10.4 mph - N/A   Clear
5:53 PM 37.9 °F 30.5 °F 30.0 °F 73% 30.09 in 10.0 mi West 11.5 mph - N/A   Clear
6:53 PM 36.0 °F 29.0 °F 27.0 °F 70% 30.11 in 10.0 mi WNW 9.2 mph - N/A   Clear
7:53 PM 36.0 °F 27.5 °F 27.0 °F 70% 30.12 in 10.0 mi West 12.7 mph - N/A   Clear
8:53 PM 36.0 °F 27.5 °F 25.0 °F 64% 30.12 in 10.0 mi West 12.7 mph - N/A   Clear
9:53 PM 35.1 °F 26.4 °F 25.0 °F 67% 30.12 in 10.0 mi West 12.7 mph - N/A   Clear
10:53 PM 34.0 °F 25.5 °F 24.1 °F 67% 30.11 in 10.0 mi West 11.5 mph - N/A   Clear
11:53 PM 34.0 °F 25.0 °F 24.1 °F 67% 30.11 in 10.0 mi West 12.7 mph - N/A   Clear